TimePDT,TemperatureF,Dew PointF,Humidity,Sea Level PressureIn,VisibilityMPH,Wind Direction,Wind SpeedMPH,Gust SpeedMPH,PrecipitationIn,Events,Conditions,WindDirDegrees,DateUTC
12:53 AM,70.0,54.0,57,29.84,10.0,North,6.9,-,N/A,,Mostly Cloudy,350,2013-09-03 07:53:00
1:53 AM,68.0,54.0,61,29.85,10.0,North,8.1,-,N/A,,Clear,360,2013-09-03 08:53:00
2:53 AM,68.0,55.0,63,29.85,10.0,NNW,5.8,-,N/A,,Clear,340,2013-09-03 09:53:00
3:53 AM,69.1,55.0,61,29.85,10.0,North,3.5,-,N/A,,Clear,360,2013-09-03 10:53:00
4:53 AM,69.1,54.0,58,29.85,10.0,NNW,5.8,-,N/A,,Partly Cloudy,330,2013-09-03 11:53:00
5:53 AM,66.9,53.1,61,29.85,10.0,North,5.8,-,N/A,,Scattered Clouds,350,2013-09-03 12:53:00
6:53 AM,68.0,53.1,59,29.85,10.0,North,5.8,-,N/A,,Overcast,10,2013-09-03 13:53:00
7:53 AM,70.0,55.0,59,29.87,10.0,NE,5.8,-,N/A,,Clear,40,2013-09-03 14:53:00
8:53 AM,73.0,55.0,53,29.88,10.0,East,3.5,-,N/A,,Clear,90,2013-09-03 15:53:00
9:53 AM,75.9,55.0,48,29.88,10.0,Variable,3.5,-,N/A,,Clear,0,2013-09-03 16:53:00
10:53 AM,78.1,55.0,45,29.88,10.0,Calm,Calm,-,N/A,,Clear,0,2013-09-03 17:53:00
11:53 AM,82.9,55.0,38,29.87,10.0,South,10.4,-,N/A,,Clear,170,2013-09-03 18:53:00
12:53 PM,82.9,55.9,39,29.88,10.0,SSW,11.5,18.4,N/A,,Clear,210,2013-09-03 19:53:00
1:53 PM,84.9,55.9,37,29.88,10.0,South,10.4,-,N/A,,Clear,180,2013-09-03 20:53:00
2:53 PM,86.0,54.0,33,29.88,10.0,Variable,6.9,16.1,N/A,,Clear,0,2013-09-03 21:53:00
3:53 PM,88.0,48.9,26,29.86,10.0,SW,10.4,18.4,N/A,,Clear,220,2013-09-03 22:53:00
4:53 PM,88.0,44.1,22,29.85,10.0,South,13.8,17.3,N/A,,Clear,180,2013-09-03 23:53:00
5:53 PM,86.0,46.9,26,29.86,10.0,South,6.9,-,N/A,,Clear,190,2013-09-04 00:53:00
6:53 PM,82.9,46.9,28,29.85,10.0,SSE,5.8,-,N/A,,Clear,160,2013-09-04 01:53:00
7:53 PM,79.0,46.9,32,29.86,10.0,Calm,Calm,-,N/A,,Clear,0,2013-09-04 02:53:00
8:53 PM,75.9,48.0,37,29.88,10.0,Calm,Calm,-,N/A,,Clear,0,2013-09-04 03:53:00
9:53 PM,72.0,46.0,40,29.88,10.0,Calm,Calm,-,N/A,,Clear,0,2013-09-04 04:53:00
10:53 PM,73.0,48.0,41,29.90,10.0,North,3.5,-,N/A,,Clear,350,2013-09-04 05:53:00
11:53 PM,73.0,51.1,46,29.90,10.0,NW,9.2,-,N/A,,Clear,320,2013-09-04 06:53:00